Location: Praha
(50.0830°N, 14.4670°E)
Time: 17:13:25
(UTC+01:00)

ISS - Pass Details

Date: 12 November 2018
Orbit: 401 x 408 km, 51.6° (Epoch: 20 November)

Event Time Altitude Azimuth Distance (km) Brightness Sun altitude
Exits shadow 04:18:51 18° 114° (ESE) 1,073 -1.1 -27.4°
Drops below altitude 10° 04:19:49 10° 113° (ESE) 1,461 -0.2 -27.2°
Sets 04:21:54 0° 112° (ESE) 2,320 1.0 -26.9°
